QPF
0.01 0.01 0.01 0.01 0.01 0.01 0.01 0.01 0.01 0.01 0.00 0.00 0.00 0.00 0.00 0.00 0.00 0.00 0.00 0.00 0.00 0.00 0.00 0.00 0.00 0.00 0.01 0.01 0.01 0.01 0.01 0.01 0.01 0.02 0.01 0.01 0.01 0.02
0.00 0.00 0.00 0.00 0.00 0.00 0.00 0.00 0.00 0.00 0.00 0.00 0.00 0.00 0.00 0.00 0.00 0.00 0.00 0.00 0.00 0.00 0.01 0.01 0.01 0.01 0.01 0.01 0.01 0.01 0.01 0.01 0.02 0.02 0.02 0.02 0.02 0.02
0.00 0.00 0.00 0.00 0.00 0.00 0.00 0.00 0.00 0.00 0.00 0.00 0.00 0.00 0.00 0.00 0.00 0.01 0.01 0.01 0.01 0.01 0.01 0.01 0.01 0.01 0.00 0.00 0.01 0.01 0.01 0.01 0.01 0.02 0.02 0.03 0.03 0.03
0.00 0.00 0.00 0.00 0.00 0.00 0.01 0.01 0.01 0.01 0.01 0.01 0.01 0.01 0.01 0.01 0.01 0.01 0.01 0.01 0.01 0.01 0.01 0.01 0.01 0.01 0.00 0.00 0.00 0.00 0.00 0.00 0.00 0.01 0.01 0.02 0.02 0.03
0.00 0.00 0.00 0.01 0.01 0.01 0.02 0.02 0.02 0.01 0.02 0.02 0.02 0.01 0.01 0.01 0.02 0.02 0.02 0.02 0.01 0.00 0.00 0.01 0.01 0.01 0.01 0.01 0.00 0.00 0.00 0.00 0.00 0.00 0.00 0.00 0.01 0.01
0.00 0.01 0.01 0.01 0.01 0.02 0.01 0.02 0.02 0.02 0.02 0.03 0.02 0.02 0.02 0.02 0.03 0.04 0.03 0.02 0.02 0.01 0.01 0.01 0.01 0.01 0.01 0.01 0.01 0.01 0.00 0.00 0.00 0.00 0.00 0.00 0.00 0.00
0.01 0.01 0.01 0.01 0.01 0.00 0.00 0.01 0.02 0.03 0.03 0.03 0.03 0.03 0.02 0.03 0.04 0.04 0.04 0.03 0.02 0.02 0.02 0.02 0.03 0.03 0.03 0.03 0.03 0.02 0.01 0.01 0.00 0.00 0.00 0.00 0.00 0.00
0.02 0.02 0.02 0.01 0.01 0.01 0.01 0.01 0.01 0.02 0.03 0.05 0.05 0.05 0.05 0.05 0.06 0.05 0.05 0.04 0.03 0.02 0.04 0.02 0.03 0.04 0.04 0.04 0.04 0.02 0.01 0.01 0.00 0.00 0.00 0.00 0.00 0.00
0.02 0.02 0.02 0.02 0.02 0.03 0.02 0.01 0.01 0.02 0.05 0.07 0.07 0.07 0.07 0.06 0.07 0.05 0.05 0.05 0.04 0.03 0.05 0.03 0.04 0.05 0.04 0.03 0.02 0.01 0.00 0.00 0.00 0.00 0.00 0.00 0.00 0.00
0.02 0.02 0.02 0.03 0.03 0.01 0.00 0.01 0.02 0.05 0.06 0.06 0.07 0.06 0.05 0.04 0.05 0.04 0.04 0.04 0.03 0.03 0.06 0.06 0.04 0.04 0.02 0.03 0.03 0.01 0.00 0.00 0.00 0.00 0.00 0.00 0.00 0.00
0.01 0.02 0.02 0.03 0.01 0.00 0.00 0.02 0.03 0.05 0.03 0.02 0.02 0.02 0.02 0.02 0.02 0.03 0.04 0.06 0.04 0.03 0.05 0.05 0.03 0.02 0.01 0.03 0.04 0.02 0.01 0.00 0.00 0.00 0.00 0.00 0.00 0.00
0.01 0.02 0.02 0.01 0.00 0.00 0.00 0.02 0.04 0.03 0.02 0.02 0.03 0.04 0.05 0.05 0.03 0.04 0.06 0.07 0.06 0.04 0.03 0.03 0.02 0.02 0.02 0.01 0.03 0.04 0.04 0.03 0.01 0.01 0.00 0.00 0.00 0.01
0.01 0.02 0.04 0.00 0.00 0.00 0.00 0.02 0.03 0.01 0.02 0.04 0.06 0.06 0.05 0.04 0.04 0.05 0.06 0.07 0.06 0.05 0.04 0.05 0.04 0.03 0.04 0.02 0.01 0.02 0.04 0.05 0.04 0.04 0.02 0.01 0.00 0.01
0.02 0.03 0.03 0.00 0.00 0.00 0.01 0.01 0.01 0.01 0.05 0.07 0.06 0.05 0.04 0.03 0.03 0.04 0.05 0.06 0.06 0.05 0.05 0.05 0.05 0.05 0.05 0.05 0.03 0.02 0.02 0.03 0.03 0.05 0.06 0.04 0.01 0.01
0.02 0.01 0.00 0.00 0.00 0.03 0.03 0.01 0.02 0.06 0.07 0.06 0.06 0.05 0.04 0.03 0.03 0.03 0.04 0.04 0.04 0.03 0.03 0.03 0.04 0.05 0.06 0.06 0.06 0.04 0.03 0.03 0.04 0.06 0.06 0.06 0.06 0.04
0.01 0.01 0.01 0.02 0.02 0.04 0.05 0.06 0.07 0.08 0.05 0.06 0.05 0.05 0.04 0.03 0.03 0.03 0.03 0.02 0.02 0.02 0.02 0.03 0.03 0.04 0.05 0.05 0.06 0.06 0.06 0.06 0.05 0.06 0.06 0.06 0.07 0.07
0.00 0.02 0.04 0.05 0.05 0.06 0.07 0.07 0.07 0.07 0.05 0.05 0.04 0.04 0.03 0.03 0.03 0.03 0.03 0.02 0.02 0.02 0.02 0.02 0.03 0.03 0.03 0.04 0.05 0.06 0.06 0.06 0.05 0.05 0.06 0.06 0.06 0.06
0.01 0.02 0.03 0.03 0.04 0.04 0.05 0.06 0.06 0.06 0.05 0.05 0.04 0.03 0.03 0.03 0.03 0.03 0.02 0.02 0.02 0.02 0.02 0.01 0.01 0.02 0.02 0.03 0.06 0.07 0.06 0.06 0.05 0.05 0.05 0.06 0.06 0.06
0.03 0.04 0.04 0.04 0.04 0.05 0.05 0.06 0.05 0.05 0.05 0.04 0.04 0.03 0.03 0.02 0.02 0.02 0.02 0.02 0.01 0.01 0.01 0.01 0.01 0.01 0.02 0.03 0.04 0.07 0.07 0.06 0.06 0.05 0.06 0.06 0.07 0.08
0.04 0.04 0.04 0.04 0.05 0.05 0.05 0.05 0.05 0.05 0.04 0.04 0.03 0.03 0.02 0.02 0.01 0.01 0.01 0.01 0.02 0.01 0.01 0.01 0.01 0.01 0.02 0.03 0.05 0.06 0.06 0.06 0.06 0.06 0.07 0.07 0.08 0.08
0.03 0.04 0.04 0.04 0.05 0.05 0.05 0.05 0.05 0.04 0.04 0.03 0.03 0.03 0.02 0.02 0.01 0.01 0.01 0.01 0.01 0.01 0.02 0.02 0.02 0.02 0.01 0.01 0.03 0.05 0.05 0.07 0.07 0.06 0.06 0.06 0.06 0.06
0.03 0.03 0.03 0.03 0.04 0.04 0.04 0.04 0.04 0.04 0.04 0.03 0.03 0.02 0.02 0.01 0.01 0.01 0.01 0.01 0.01 0.01 0.02 0.02 0.01 0.01 0.01 0.01 0.03 0.04 0.05 0.05 0.05 0.05 0.06 0.07 0.05 0.06
0.02 0.02 0.02 0.03 0.03 0.03 0.03 0.03 0.03 0.03 0.04 0.04 0.03 0.02 0.02 0.01 0.01 0.01 0.01 0.01 0.01 0.01 0.01 0.01 0.01 0.01 0.01 0.01 0.02 0.02 0.03 0.03 0.03 0.03 0.05 0.08 0.08 0.09
MSLP
1021.31 1021.47 1021.57 1021.59 1021.51 1021.31 1021.02 1020.66 1020.25 1019.83 1019.44 1019.09 1018.80 1018.57 1018.40 1018.27 1018.16 1018.07 1017.97 1017.87 1017.76 1017.64 1017.52 1017.40 1017.27 1017.15 1017.02 1016.89 1016.77 1016.66 1016.55 1016.46 1016.37 1016.30 1016.24 1016.19 1016.13 1016.08
1021.37 1021.48 1021.54 1021.53 1021.45 1021.27 1021.02 1020.70 1020.35 1019.98 1019.62 1019.29 1019.00 1018.75 1018.53 1018.33 1018.13 1017.94 1017.73 1017.51 1017.29 1017.07 1016.85 1016.63 1016.43 1016.25 1016.08 1015.93 1015.81 1015.70 1015.63 1015.58 1015.55 1015.54 1015.54 1015.54 1015.53 1015.51
1021.42 1021.46 1021.47 1021.43 1021.34 1021.19 1020.97 1020.70 1020.40 1020.08 1019.77 1019.46 1019.18 1018.90 1018.63 1018.36 1018.09 1017.79 1017.48 1017.16 1016.83 1016.50 1016.18 1015.87 1015.58 1015.32 1015.09 1014.90 1014.75 1014.65 1014.60 1014.59 1014.62 1014.68 1014.76 1014.83 1014.90 1014.94
1021.50 1021.47 1021.42 1021.35 1021.24 1021.10 1020.91 1020.68 1020.43 1020.16 1019.88 1019.59 1019.30 1019.00 1018.69 1018.36 1018.00 1017.63 1017.23 1016.82 1016.39 1015.97 1015.55 1015.15 1014.78 1014.43 1014.13 1013.88 1013.69 1013.57 1013.51 1013.53 1013.61 1013.74 1013.89 1014.05 1014.20 1014.33
1021.64 1021.53 1021.42 1021.31 1021.18 1021.03 1020.86 1020.66 1020.44 1020.20 1019.94 1019.65 1019.35 1019.02 1018.66 1018.28 1017.86 1017.42 1016.96 1016.48 1015.99 1015.50 1015.01 1014.53 1014.07 1013.64 1013.26 1012.93 1012.68 1012.51 1012.43 1012.45 1012.55 1012.73 1012.95 1013.20 1013.44 1013.64
1021.82 1021.64 1021.48 1021.32 1021.16 1020.99 1020.82 1020.63 1020.41 1020.17 1019.91 1019.61 1019.28 1018.92 1018.52 1018.09 1017.63 1017.15 1016.66 1016.14 1015.62 1015.09 1014.55 1014.02 1013.49 1012.99 1012.52 1012.11 1011.78 1011.54 1011.42 1011.41 1011.51 1011.70 1011.97 1012.27 1012.59 1012.87
1022.01 1021.78 1021.55 1021.35 1021.15 1020.95 1020.76 1020.55 1020.32 1020.06 1019.77 1019.44 1019.08 1018.67 1018.24 1017.78 1017.30 1016.81 1016.30 1015.79 1015.26 1014.73 1014.18 1013.62 1013.05 1012.49 1011.95 1011.45 1011.04 1010.72 1010.52 1010.45 1010.52 1010.70 1010.98 1011.31 1011.67 1012.01
1022.17 1021.88 1021.61 1021.35 1021.11 1020.88 1020.64 1020.40 1020.13 1019.83 1019.50 1019.14 1018.73 1018.29 1017.83 1017.36 1016.87 1016.38 1015.90 1015.41 1014.91 1014.40 1013.87 1013.31 1012.73 1012.13 1011.53 1010.97 1010.46 1010.06 1009.77 1009.63 1009.63 1009.77 1010.02 1010.35 1010.72 1011.09
1022.25 1021.93 1021.61 1021.30 1021.01 1020.73 1020.45 1020.16 1019.84 1019.50 1019.12 1018.71 1018.27 1017.81 1017.33 1016.85 1016.37 1015.91 1015.46 1015.01 1014.57 1014.10 1013.61 1013.07 1012.49 1011.88 1011.25 1010.63 1010.05 1009.56 1009.19 1008.95 1008.87 1008.94 1009.13 1009.43 1009.77 1010.14
1022.24 1021.88 1021.53 1021.18 1020.85 1020.51 1020.18 1019.83 1019.47 1019.08 1018.67 1018.22 1017.75 1017.27 1016.78 1016.31 1015.86 1015.42 1015.02 1014.62 1014.23 1013.82 1013.37 1012.88 1012.32 1011.71 1011.06 1010.40 1009.77 1009.21 1008.75 1008.43 1008.26 1008.24 1008.36 1008.59 1008.89 1009.23
1022.16 1021.78 1021.39 1021.01 1020.62 1020.24 1019.86 1019.47 1019.06 1018.64 1018.19 1017.72 1017.24 1016.76 1016.28 1015.82 1015.39 1015.00 1014.63 1014.28 1013.94 1013.57 1013.17 1012.70 1012.17 1011.57 1010.92 1010.25 1009.58 1008.97 1008.44 1008.05 1007.79 1007.69 1007.73 1007.88 1008.12 1008.41
1022.05 1021.65 1021.23 1020.81 1020.38 1019.96 1019.53 1019.10 1018.67 1018.22 1017.76 1017.29 1016.81 1016.34 1015.89 1015.45 1015.05 1014.68 1014.34 1014.02 1013.70 1013.37 1012.99 1012.55 1012.04 1011.46 1010.82 1010.14 1009.45 1008.81 1008.24 1007.79 1007.47 1007.29 1007.25 1007.33 1007.50 1007.73
1021.97 1021.54 1021.09 1020.63 1020.16 1019.69 1019.23 1018.78 1018.32 1017.87 1017.41 1016.96 1016.51 1016.07 1015.64 1015.23 1014.85 1014.50 1014.18 1013.87 1013.56 1013.23 1012.86 1012.44 1011.94 1011.37 1010.74 1010.07 1009.39 1008.73 1008.14 1007.65 1007.28 1007.05 1006.94 1006.96 1007.06 1007.23
1021.93 1021.47 1020.98 1020.48 1019.98 1019.47 1018.98 1018.51 1018.05 1017.60 1017.17 1016.75 1016.34 1015.93 1015.54 1015.16 1014.81 1014.47 1014.15 1013.84 1013.52 1013.18 1012.81 1012.38 1011.89 1011.33 1010.72 1010.06 1009.39 1008.74 1008.15 1007.65 1007.25 1006.97 1006.82 1006.78 1006.82 1006.93
1021.94 1021.45 1020.92 1020.38 1019.83 1019.29 1018.78 1018.29 1017.83 1017.41 1017.01 1016.63 1016.26 1015.91 1015.56 1015.22 1014.88 1014.56 1014.23 1013.91 1013.58 1013.23 1012.84 1012.40 1011.91 1011.37 1010.77 1010.14 1009.50 1008.87 1008.30 1007.79 1007.39 1007.09 1006.90 1006.81 1006.80 1006.85
1021.99 1021.45 1020.88 1020.29 1019.70 1019.13 1018.59 1018.10 1017.66 1017.26 1016.89 1016.56 1016.25 1015.94 1015.64 1015.33 1015.02 1014.71 1014.39 1014.06 1013.72 1013.35 1012.96 1012.52 1012.04 1011.52 1010.95 1010.35 1009.74 1009.15 1008.60 1008.11 1007.71 1007.40 1007.18 1007.05 1006.99 1006.99
1022.02 1021.44 1020.82 1020.19 1019.56 1018.97 1018.42 1017.92 1017.49 1017.11 1016.79 1016.50 1016.23 1015.97 1015.71 1015.44 1015.16 1014.87 1014.56 1014.24 1013.90 1013.54 1013.15 1012.73 1012.28 1011.79 1011.26 1010.71 1010.15 1009.60 1009.08 1008.62 1008.22 1007.90 1007.67 1007.50 1007.40 1007.33
1022.02 1021.40 1020.74 1020.07 1019.41 1018.80 1018.24 1017.74 1017.32 1016.97 1016.67 1016.41 1016.18 1015.96 1015.74 1015.50 1015.25 1014.99 1014.70 1014.40 1014.09 1013.75 1013.40 1013.02 1012.61 1012.16 1011.69 1011.20 1010.69 1010.19 1009.72 1009.28 1008.90 1008.58 1008.32 1008.13 1007.98 1007.86
1021.98 1021.32 1020.63 1019.93 1019.26 1018.64 1018.08 1017.59 1017.18 1016.84 1016.55 1016.31 1016.10 1015.90 1015.70 1015.49 1015.27 1015.03 1014.78 1014.51 1014.24 1013.95 1013.65 1013.32 1012.97 1012.60 1012.19 1011.77 1011.32 1010.88 1010.44 1010.04 1009.67 1009.36 1009.09 1008.87 1008.68 1008.51
1021.90 1021.23 1020.53 1019.83 1019.16 1018.55 1017.99 1017.51 1017.10 1016.76 1016.48 1016.24 1016.03 1015.82 1015.63 1015.42 1015.21 1014.99 1014.77 1014.55 1014.32 1014.09 1013.85 1013.60 1013.32 1013.02 1012.69 1012.34 1011.96 1011.57 1011.18 1010.81 1010.47 1010.16 1009.89 1009.65 1009.43 1009.23
1021.84 1021.17 1020.48 1019.80 1019.16 1018.56 1018.02 1017.55 1017.15 1016.80 1016.50 1016.23 1015.99 1015.77 1015.54 1015.32 1015.10 1014.89 1014.69 1014.49 1014.31 1014.14 1013.96 1013.78 1013.58 1013.36 1013.11 1012.82 1012.51 1012.17 1011.83 1011.50 1011.18 1010.89 1010.63 1010.39 1010.17 1009.95
1021.82 1021.18 1020.53 1019.89 1019.28 1018.72 1018.21 1017.75 1017.34 1016.98 1016.65 1016.34 1016.05 1015.77 1015.50 1015.23 1014.98 1014.75 1014.55 1014.37 1014.22 1014.09 1013.97 1013.85 1013.71 1013.56 1013.37 1013.15 1012.89 1012.61 1012.32 1012.02 1011.74 1011.47 1011.23 1011.02 1010.81 1010.61
1021.88 1021.29 1020.69 1020.11 1019.55 1019.03 1018.55 1018.10 1017.69 1017.30 1016.93 1016.56 1016.21 1015.85 1015.51 1015.18 1014.88 1014.61 1014.38 1014.19 1014.05 1013.94 1013.86 1013.78 1013.70 1013.59 1013.46 1013.29 1013.09 1012.86 1012.61 1012.35 1012.11 1011.88 1011.67 1011.49 1011.32 1011.16
Thickness
5580 5575 5570 5566 5562 5558 5553 5549 5545 5544 5543 5539 5535 5531 5525 5520 5514 5510 5506 5502 5499 5496 5493 5491 5489 5487 5485 5483 5482 5481 5480 5481 5482 5484 5486 5489 5493 5498
5565 5560 5555 5550 5545 5540 5536 5532 5528 5525 5525 5522 5517 5512 5507 5502 5498 5494 5490 5488 5486 5483 5481 5479 5477 5475 5473 5472 5470 5469 5469 5469 5470 5471 5473 5476 5479 5483
5548 5544 5538 5533 5529 5523 5519 5515 5512 5508 5505 5505 5499 5495 5490 5486 5482 5479 5477 5475 5474 5472 5470 5468 5466 5464 5463 5462 5461 5460 5459 5459 5459 5460 5462 5464 5467 5471
5531 5526 5522 5518 5512 5507 5503 5499 5495 5490 5487 5486 5483 5479 5475 5472 5469 5467 5465 5464 5462 5461 5459 5458 5458 5456 5455 5455 5454 5453 5452 5451 5451 5451 5453 5455 5457 5460
5515 5510 5506 5502 5498 5493 5488 5484 5481 5477 5473 5470 5469 5466 5463 5460 5458 5456 5454 5452 5451 5451 5451 5451 5451 5450 5449 5449 5449 5448 5448 5447 5446 5446 5446 5447 5449 5451
5500 5496 5493 5489 5485 5480 5475 5471 5468 5463 5459 5457 5456 5454 5452 5450 5446 5444 5444 5443 5443 5442 5443 5443 5443 5444 5444 5444 5445 5445 5444 5444 5443 5442 5442 5442 5443 5444
5486 5483 5480 5477 5473 5468 5463 5458 5453 5450 5447 5445 5444 5443 5442 5439 5436 5435 5435 5436 5437 5436 5437 5437 5437 5438 5439 5440 5441 5441 5441 5441 5440 5439 5438 5438 5439 5440
5472 5470 5468 5466 5462 5457 5451 5447 5442 5439 5437 5435 5434 5433 5433 5431 5430 5429 5428 5428 5431 5431 5430 5431 5431 5432 5433 5435 5437 5437 5437 5437 5436 5436 5435 5435 5435 5436
5459 5457 5455 5453 5449 5444 5440 5438 5436 5433 5432 5429 5428 5428 5427 5427 5426 5425 5423 5422 5423 5424 5424 5426 5426 5427 5429 5431 5432 5432 5433 5433 5432 5432 5432 5431 5431 5432
5447 5445 5442 5440 5436 5431 5430 5430 5430 5430 5428 5428 5427 5426 5426 5425 5422 5421 5420 5421 5421 5421 5420 5420 5422 5423 5425 5426 5427 5428 5428 5428 5428 5428 5428 5428 5428 5428
5436 5435 5432 5430 5426 5423 5423 5424 5426 5427 5427 5427 5426 5426 5425 5424 5422 5419 5419 5418 5419 5419 5418 5416 5418 5419 5421 5422 5423 5423 5423 5424 5424 5424 5425 5425 5424 5424
5425 5426 5425 5422 5420 5418 5418 5420 5422 5424 5425 5426 5426 5426 5426 5424 5422 5419 5417 5415 5415 5416 5416 5413 5413 5412 5415 5418 5418 5419 5420 5421 5421 5422 5423 5422 5422 5421
5417 5419 5419 5418 5417 5418 5417 5419 5421 5422 5423 5424 5426 5426 5425 5424 5422 5419 5417 5414 5413 5412 5412 5409 5409 5409 5408 5411 5414 5416 5417 5418 5419 5421 5421 5421 5420 5419
5410 5413 5415 5416 5417 5419 5421 5423 5423 5422 5424 5425 5426 5425 5424 5423 5421 5419 5418 5415 5413 5411 5410 5408 5407 5406 5407 5409 5411 5414 5416 5417 5418 5419 5420 5420 5418 5417
5407 5410 5413 5416 5419 5422 5424 5425 5425 5425 5426 5426 5426 5425 5424 5423 5421 5420 5418 5416 5415 5413 5411 5410 5408 5407 5406 5407 5408 5410 5413 5415 5416 5416 5417 5417 5417 5416
5405 5409 5413 5418 5421 5423 5425 5427 5427 5427 5427 5426 5426 5426 5425 5423 5422 5420 5418 5416 5414 5414 5413 5412 5411 5409 5406 5406 5407 5409 5411 5412 5413 5414 5415 5415 5415 5415
5400 5408 5415 5419 5423 5425 5427 5428 5429 5429 5429 5428 5428 5426 5425 5424 5422 5420 5418 5417 5414 5413 5413 5414 5413 5411 5408 5405 5407 5408 5410 5411 5411 5412 5412 5412 5412 5412
5403 5409 5415 5419 5422 5424 5427 5429 5430 5431 5431 5430 5429 5428 5426 5425 5423 5421 5419 5417 5415 5414 5413 5412 5413 5413 5411 5409 5404 5406 5409 5410 5410 5410 5410 5410 5409 5409
5407 5412 5416 5420 5423 5426 5428 5430 5431 5432 5432 5432 5430 5429 5428 5426 5424 5423 5421 5419 5417 5415 5414 5413 5412 5411 5410 5408 5407 5404 5406 5408 5409 5409 5408 5408 5407 5406
5411 5414 5417 5421 5425 5428 5431 5432 5433 5434 5434 5433 5433 5431 5430 5428 5426 5425 5423 5420 5418 5417 5415 5414 5413 5411 5409 5406 5405 5404 5404 5406 5407 5408 5408 5407 5407 5407
5413 5416 5420 5424 5428 5431 5433 5435 5435 5436 5436 5436 5435 5434 5432 5431 5429 5428 5426 5422 5421 5420 5418 5416 5414 5413 5412 5411 5408 5406 5405 5404 5405 5406 5408 5410 5410 5410
5415 5418 5423 5427 5430 5434 5436 5437 5438 5438 5438 5438 5438 5437 5436 5435 5433 5432 5430 5427 5426 5424 5422 5420 5419 5417 5415 5413 5410 5408 5407 5407 5407 5407 5408 5409 5410 5410
5417 5420 5425 5429 5433 5435 5438 5439 5439 5439 5439 5439 5440 5440 5439 5438 5437 5436 5434 5432 5430 5428 5426 5424 5422 5421 5419 5417 5414 5412 5411 5410 5410 5410 5409 5409 5410 5411